This demonstration page uses our WeatherBlox Daily Observations layout. Learn more.

Left ArrowRight Arrow

Hourly Observations for September 23, 2017

Temp ( °F °C ) Dew Point ( °F °C ) Humidity (%) Winds ( mph kmh ) Pressure ( in mb ) Visibility ( mi km ) Precip ( " mm )
12:12 am 00:12 Clear 66 19 64 18 94 94 N N/A 30.06 1018 5 8 N/A
12:32 am 00:32 Clear 66 19 64 18 94 94 N N/A 30.06 1018 7 11 N/A
12:52 am 00:52 Clear 66 19 66 19 100 100 N N/A 30.06 1018 5 8 N/A
1:12 am 01:12 Clear 66 19 64 18 94 94 N N/A 30.06 1018 3 5 N/A
1:32 am 01:32 Clear 66 19 64 18 94 94 N N/A 30.06 1018 3 4 N/A
1:52 am 01:52 Clear 66 19 64 18 94 94 N N/A 30.06 1018 3 5 N/A
2:12 am 02:12 Mostly Cloudy 64 18 64 18 100 100 N N/A 30.06 1018 1 2 N/A
2:31 am 02:31 Clear 64 18 64 18 100 100 N N/A 30.06 1018 4 6 N/A
2:52 am 02:52 Clear 64 18 64 18 100 100 N N/A 30.06 1018 5 8 N/A
3:11 am 03:11 Clear 64 18 64 18 100 100 N N/A 30.06 1018 4 6 N/A
3:32 am 03:32 Clear 64 18 63 17 94 94 N N/A 30.06 1018 7 11 N/A
3:52 am 03:52 Mostly Cloudy 64 18 64 18 100 100 N N/A 30.06 1018 2 3 N/A
4:12 am 04:12 Clear 63 17 63 17 100 100 N N/A 30.06 1018 5 8 N/A
4:32 am 04:32 Clear 63 17 63 17 100 100 N N/A 30.06 1018 4 6 N/A
4:52 am 04:52 Clear 64 18 63 17 94 94 N N/A 30.09 1019 5 8 N/A
5:12 am 05:12 Clear 64 18 64 18 100 100 N N/A 30.09 1019 5 8 N/A
5:32 am 05:32 Clear 63 17 63 17 100 100 SE 3 6 30.09 1019 5 8 N/A
5:52 am 05:52 Clear 63 17 63 17 100 100 N N/A 30.09 1019 5 8 N/A
6:12 am 06:12 Clear 63 17 63 17 100 100 N N/A 30.09 1019 3 5 N/A
6:32 am 06:32 Mostly Cloudy 63 17 63 17 100 100 N N/A 30.09 1019 1 2 N/A
6:52 am 06:52 Mostly Cloudy 63 17 61 16 94 94 N N/A 30.09 1019 2 3 N/A
7:12 am 07:12 Clear 63 17 63 17 100 100 N N/A 30.09 1019 3 4 N/A
7:32 am 07:32 Mostly Cloudy 61 16 61 16 100 100 N N/A 30.09 1019 1 2 N/A
7:52 am 07:52 Mostly Cloudy 61 16 61 16 100 100 N N/A 30.12 1020 0 0 N/A
8:12 am 08:12 Mostly Cloudy 63 17 63 17 100 100 N N/A 30.12 1020 2 3 N/A
8:32 am 08:32 Sunny 63 17 63 17 100 100 N N/A 30.12 1020 3 4 N/A
8:52 am 08:52 Sunny 66 19 64 18 94 94 N N/A 30.12 1020 5 8 N/A
9:12 am 09:12 Sunny 68 20 66 19 94 94 N N/A 30.12 1020 5 8 N/A
9:32 am 09:32 Sunny 72 22 68 20 88 88 N N/A 30.09 1019 7 11 N/A
9:52 am 09:52 Sunny 73 23 68 20 83 83 N N/A 30.12 1020 10 16 N/A
10:12 am 10:12 Sunny 75 24 68 20 78 78 N N/A 30.12 1020 10 16 N/A
10:32 am 10:32 Sunny 77 25 68 20 74 74 N N/A 30.12 1020 10 16 N/A
10:52 am 10:52 Sunny 81 27 68 20 66 66 N N/A 30.12 1020 10 16 N/A
11:12 am 11:12 Sunny 81 27 68 20 66 66 N N/A 30.12 1020 10 16 N/A
11:32 am 11:32 Sunny 82 28 66 19 58 58 N N/A 30.12 1020 10 16 N/A
11:52 am 11:52 Sunny 84 29 66 19 55 55 N N/A 30.12 1020 10 16 N/A
12:12 pm 12:12 Sunny 84 29 66 19 55 55 N N/A 30.12 1020 10 16 N/A
12:32 pm 12:32 Sunny 84 29 66 19 55 55 SE 3 6 30.12 1020 10 16 N/A
12:52 pm 12:52 Sunny 86 30 66 19 52 52 SSE 5 7 30.12 1020 10 16 N/A
1:12 pm 13:12 Sunny 86 30 64 18 49 49 N N/A 30.09 1019 10 16 N/A
1:32 pm 13:32 Sunny 86 30 64 18 49 49 SSW 3 6 30.09 1019 10 16 N/A
1:52 pm 13:52 Sunny 88 31 64 18 46 46 S 3 6 30.09 1019 10 16 N/A
2:12 pm 14:12 Sunny 88 31 63 17 43 43 ESE 3 6 30.09 1019 10 16 N/A
2:32 pm 14:32 Sunny 88 31 64 18 46 46 S 5 7 30.09 1019 10 16 N/A
2:52 pm 14:52 Sunny 90 32 63 17 41 41 ENE 3 6 30.06 1018 10 16 N/A
3:12 pm 15:12 Sunny 90 32 63 17 41 41 ESE 5 7 30.03 1017 10 16 N/A
3:32 pm 15:32 Sunny 90 32 64 18 43 43 ESE 5 7 30.03 1017 10 16 N/A
3:52 pm 15:52 Sunny 90 32 64 18 43 43 ESE 7 11 30.03 1017 10 16 N/A
4:12 pm 16:12 Sunny 90 32 64 18 43 43 SSE 7 11 30.03 1017 10 16 N/A
4:32 pm 16:32 Sunny 90 32 64 18 43 43 SE 5 7 30.03 1017 10 16 N/A
4:52 pm 16:52 Sunny 90 32 64 18 43 43 SSE 3 6 30.00 1016 10 16 N/A
5:12 pm 17:12 Sunny 90 32 64 18 43 43 SE 5 7 30.00 1016 10 16 N/A
5:32 pm 17:32 Sunny 90 32 63 17 41 41 SE 6 9 30.00 1016 10 16 N/A
5:52 pm 17:52 Sunny 90 32 63 17 41 41 E 6 9 30.00 1016 10 16 N/A
6:12 pm 18:12 Sunny 90 32 63 17 41 41 E 6 9 30.00 1016 10 16 N/A
6:31 pm 18:31 Sunny 88 31 63 17 43 43 ESE 8 13 30.03 1017 10 16 N/A
6:52 pm 18:52 Sunny 88 31 61 16 40 40 ESE 6 9 30.03 1017 10 16 N/A
7:12 pm 19:12 Sunny 86 30 63 17 46 46 SE 6 9 30.03 1017 10 16 N/A
7:31 pm 19:31 Sunny 84 29 63 17 48 48 SE 5 7 30.06 1018 10 16 N/A
7:52 pm 19:52 Clear 81 27 63 17 54 54 SE 3 6 30.06 1018 10 16 N/A
8:12 pm 20:12 Clear 79 26 63 17 58 58 SE 3 6 30.06 1018 10 16 N/A
8:31 pm 20:31 Clear 77 25 63 17 61 61 SSE 3 6 30.06 1018 10 16 N/A
8:52 pm 20:52 Clear 75 24 63 17 65 65 SSE 3 6 30.06 1018 10 16 N/A
9:12 pm 21:12 Clear 75 24 63 17 65 65 SE 3 6 30.06 1018 10 16 N/A
9:32 pm 21:32 Clear 73 23 63 17 69 69 N N/A 30.06 1018 10 16 N/A
9:52 pm 21:52 Clear 70 21 64 18 83 83 N N/A 30.09 1019 10 16 N/A
10:12 pm 22:12 Clear 70 21 64 18 83 83 N N/A 30.09 1019 10 16 N/A
10:32 pm 22:32 Clear 66 19 64 18 94 94 N N/A 30.09 1019 10 16 N/A
10:52 pm 22:52 Clear 66 19 64 18 94 94 N N/A 30.09 1019 10 16 N/A
11:12 pm 23:12 Clear 66 19 63 17 88 88 N N/A 30.09 1019 10 16 N/A
11:32 pm 23:32 Clear 64 18 63 17 94 94 N N/A 30.09 1019 10 16 N/A
11:52 pm 23:52 Clear 66 19 63 17 88 88 N N/A 30.09 1019 10 16 N/A

Powered by AerisWeather